This demonstration page uses our WeatherBlox Daily Observations layout. Learn more.

Left ArrowRight Arrow

44.89941, -97.11507

Hourly Observations for August 20, 2016

Temp ( °F °C ) Dew Point ( °F °C ) Humidity (%) Winds ( mph kmh ) Pressure ( in mb ) Visibility ( mi km ) Precip ( " mm )
12:53 am 00:53 Cloudy with Light Rain 61 16.1 56 13.3 84 84 NNW 14 22 29.94 1014 10 16 0.00 0.03
1:53 am 01:53 Cloudy 61 16.1 55 12.8 81 81 NNW 15 24 29.92 1013 10 16 0.00 0.03
2:53 am 02:53 Cloudy 59 15 55 12.8 87 87 NNW 14 22 29.91 1013 10 16 0.00 0.00
3:53 am 03:53 Cloudy with Light Rain 58 14.4 55 12.8 90 90 NW 14 22 29.91 1013 9 14 0.01 0.25
4:53 am 04:53 Cloudy 58 14.4 55 12.8 90 90 NNW 12 19 29.90 1013 10 16 0.08 2.03
5:15 am 05:15 Cloudy 58 14.4 55 12.8 90 90 NW 13 20 29.91 1013 10 16 0.00 0.00
5:31 am 05:31 Cloudy 58 14.4 55 12.8 90 90 NW 10 17 29.91 1013 10 16 0.00 0.00
5:48 am 05:48 Cloudy 57 14 55 13 94 94 NNW 10 17 29.91 1013 10 16 0.00 0.00
5:53 am 05:53 Cloudy 58 14.4 55 12.8 90 90 NW 9 15 29.89 1012 10 16 0.00 0.00
6:11 am 06:11 Cloudy 58 14.4 55 12.8 90 90 NW 8 13 29.91 1013 10 16 0.00 0.00
6:53 am 06:53 Cloudy 58 14.4 55 12.8 90 90 NW 10 17 29.90 1013 10 16 0.00 0.00
7:12 am 07:12 Cloudy 58 14.4 55 12.8 90 90 WNW 9 15 29.91 1013 10 16 0.00 0.00
7:34 am 07:34 Cloudy 58 14.4 55 12.8 90 90 NW 10 17 29.91 1013 10 16 0.00 0.00
7:41 am 07:41 Cloudy 58 14.4 55 12.8 90 90 NW 9 15 29.91 1013 10 16 0.00 0.00
7:53 am 07:53 Cloudy 58 14.4 55 12.8 90 90 NW 15 24 29.90 1013 10 16 0.00 0.00
8:03 am 08:03 Cloudy 58 14.4 55 12.8 90 90 NW 14 22 29.91 1013 10 16 0.00 0.00
8:21 am 08:21 Cloudy 58 14.4 54 12.2 87 87 NW 14 22 29.91 1013 10 16 0.00 0.00
8:38 am 08:38 Cloudy 58 14.4 54 12.2 87 87 NW 13 20 29.91 1013 10 16 0.00 0.00
8:53 am 08:53 Cloudy 58 14.4 54 12.2 87 87 NW 17 28 29.90 1013 10 16 0.00 0.00
9:53 am 09:53 Cloudy 59 15 55 12.8 87 87 WNW 9 15 29.90 1013 10 16 0.00 0.00
10:39 am 10:39 Mostly Cloudy 64 17.8 56 13.3 75 75 NNW 12 19 29.88 1012 10 16 0.00 0.00
10:48 am 10:48 Partly Cloudy 64 18 55 13 73 73 NW 10 17 29.88 1012 10 16 0.00 0.00
10:53 am 10:53 Mostly Cloudy 65 18.3 56 13.3 73 73 NNW 14 22 29.89 1012 10 16 0.00 0.00
11:53 am 11:53 Mostly Cloudy 67 19.4 55 12.8 66 66 NW 14 22 29.88 1012 10 16 0.00 0.00
12:02 pm 12:02 Partly Cloudy 68 20 54 12.2 61 61 NW 18 30 29.83 1010 10 16 0.00 0.00
12:53 pm 12:53 Mostly Sunny 68 20 54 12.2 61 61 NW 16 26 29.87 1012 10 16 0.00 0.00
1:53 pm 13:53 Cloudy 63 17.2 55 12.8 76 76 NW 16 26 29.88 1012 10 16 0.01 0.25
2:14 pm 14:14 Mostly Cloudy with Heavy Rain 60 15.6 53 11.7 78 78 NW 18 30 29.88 1012 2 3 0.10 2.54
2:23 pm 14:23 Mostly Cloudy with Light Rain 61 16.1 55 12.8 81 81 NW 14 22 29.85 1011 3 5 0.11 2.79
2:53 pm 14:53 Mostly Cloudy with Haze 66 18.9 58 14.4 75 75 NW 21 33 29.89 1012 4 6 0.14 3.56
2:55 pm 14:55 Mostly Cloudy with Heavy Rain 63 17.2 57 13.9 81 81 NNW 22 35 29.88 1012 2 2 0.10 2.54
3:02 pm 15:02 Mostly Cloudy with Light Rain 61 16.1 56 13.3 84 84 NW 13 20 29.88 1012 1 2 0.12 3.05
3:05 pm 15:05 Mostly Cloudy with Light Rain 62 16.7 56 13.3 80 80 NW 10 17 29.85 1011 3 5 0.12 3.05
3:53 pm 15:53 Mostly Cloudy 64 17.8 54 12.2 70 70 N 10 17 29.88 1012 10 16 0.12 3.05
4:24 pm 16:24 Cloudy with Heavy Rain 60 15.6 54 12.2 80 80 WNW 12 19 29.85 1011 2 3 0.12 3.05
4:32 pm 16:32 Cloudy with Light Rain 61 16.1 54 12.2 78 78 WNW 9 15 29.85 1011 3 5 0.14 3.56
4:53 pm 16:53 Cloudy 63 17.2 57 13.9 81 81 WNW 13 20 29.89 1012 10 16 0.20 5.08
5:53 pm 17:53 Mostly Cloudy 67 19.4 54 12.2 63 63 NNW 16 26 29.89 1012 10 16 0.00 0.03
6:53 pm 18:53 Partly Cloudy 66 18.9 50 10 56 56 NNW 15 24 29.90 1013 10 16 0.00 0.00
7:53 pm 19:53 Mostly Cloudy with Light Rain 61 16.1 51 10.6 70 70 NW 12 19 29.91 1013 10 16 0.00 0.03
8:53 pm 20:53 Mostly Clear 59 15 53 11.7 81 81 NNW 5 7 29.91 1013 10 16 0.00 0.03
9:53 pm 21:53 Clear 58 14.4 52 11.1 81 81 Calm 29.93 1014 10 16 0.00 0.00
10:53 pm 22:53 Mostly Clear 57 13.9 52 11.1 83 83 NNW 6 9 29.93 1014 10 16 0.00 0.00
11:53 pm 23:53 Clear 57 13.9 53 11.7 87 87 W 7 11 29.95 1014 10 16 0.00 0.00

Powered by AerisWeather